Location: Boiro
(42.6475°N, 8.8834°W)
Time: 23:19:54
(UTC+01:00)

Altair - Pass Details

Date: 01 December 2021
Orbit: 1501 x 1683 km, 47.2° (Epoch: 18 January)

Event Time Altitude Azimuth Distance (km) Brightness Sun altitude
Rises 17:29:07 0° 227° (SW) 4,781 12.6 4.4°
Reaches altitude 10° 17:32:17 10° 224° (SW) 3,773 11.7 3.9°
Maximum altitude 17:41:38 65° 146° (SE) 1,670 7.8 2.5°
Drops below altitude 10° 17:50:43 10° 67° (ENE) 3,670 8.9 1.1°
Sets 17:53:45 0° 65° (ENE) 4,644 9.3 0.6°
